CAPE
2077 2238 2006 1934 1906 1734 1888 2003 2053 1864 2202 2199 2100 2314 2190 2161 1870 1668 1621 1504 1712 1347 1639 1553 1487 1498 1755 1638 1810 2388 2404 2219 2054 1934 1894 1918 2128 2083 1888 2018 1924 1956 1983 2017 2498 2395 2450 2242 2356 2697 2708 2627 2825 3047 2977 2988 3138 3062 3094 3009 2996 3015 2910 2950 2815 2676 2786 2626 2495 2735 2621 2724 2792 2926 3017 2871 2659 2681 2862 2760 3184 1860 2387 3091 3069
2202 1499 1959 2237 1741 1651 1845 1822 1836 1490 2019 2135 1942 2232 2188 2089 2029 2069 1813 1706 1537 1536 1346 1481 1577 1508 892 1275 1637 2275 2335 2125 2127 1902 1775 2046 1991 1737 1705 1419 1276 1282 1612 1590 2060 2313 2141 2432 2562 2484 2531 2756 3001 2870 2945 2876 2801 2914 2873 2890 2973 2954 2952 2821 2820 2728 2707 2868 2849 2850 2800 2802 2813 2808 2865 3007 2968 2856 2725 2353 2189 1969 2937 3037 3005
2229 2554 2221 2263 1653 1704 1828 1958 2088 1757 1736 2000 2137 2092 2276 2265 1944 1847 1645 1582 1555 1502 1323 1130 1139 1120 1196 1692 1636 2070 2032 2282 2156 2091 2131 2197 1831 1385 1494 1470 1561 1641 1412 1121 1084 1362 1690 2311 2499 2369 2577 2695 2767 2729 2959 2863 2761 2756 2895 2904 2902 2974 2927 2881 2944 2772 2874 3121 3100 2733 2738 2708 2797 2742 2749 2920 3010 3074 2979 2713 2601 2560 2714 2804 2934
2575 2093 2109 2020 1715 1758 1993 2049 1950 1791 1546 1830 1980 2094 2084 2035 1932 1760 1750 1383 1624 1372 1082 1042 1457 1620 1791 1264 1913 2137 2202 2083 2202 2544 2519 2430 2042 1952 2057 1651 1426 1323 1307 1452 1583 1560 1805 2110 2163 1997 2233 2422 2438 2413 2577 2885 2667 2631 2770 2797 2716 3127 3098 2998 3104 3191 3174 2882 2500 2407 2743 2955 3004 2898 2815 2842 2964 3054 3260 3244 3235 3138 3016 2896 2790
2136 1968 2082 2143 2371 1832 1764 1940 1939 1871 1736 1651 1799 1929 2002 1953 2139 1998 1728 1615 1612 1522 1468 1557 1777 1759 1747 2103 2048 2193 2201 2267 2211 2418 2574 2244 1855 2254 2029 1748 1547 1592 1230 1257 1630 1358 1572 1688 1770 1951 2137 2454 2436 2601 2818 2735 2785 2894 2921 2963 2952 3290 3226 3184 3220 3197 3302 3156 2755 2348 2334 2437 2839 2958 2900 2912 2804 2794 2806 2870 2950 2904 2866 2859 2763
1913 2317 1970 2415 2155 1863 1582 1425 1720 1739 1700 1628 1933 1779 1829 1727 1676 1830 1782 1796 1575 1670 1707 1832 1850 1523 1867 2044 2259 2248 2209 2210 2348 2285 2370 2348 2254 2423 2187 2116 1814 1425 1538 1481 1391 1505 1385 1222 1839 1994 2572 2425 2565 2813 2890 2987 2922 2826 2746 3071 3015 3109 3212 3291 3199 3211 2997 3197 2962 2522 1860 1702 1881 2671 3132 3048 3001 2877 2810 2649 2594 2698 2883 2826 2836
1981 1892 1880 1978 2320 2024 1685 1619 1427 1666 1583 1768 1802 1811 2059 2063 1736 1325 1612 1558 1731 1608 1985 2174 1747 1824 2026 1716 2142 2349 2072 2333 2581 2594 2455 2365 2427 2317 2183 1823 1754 1775 1690 1712 1702 1626 1614 1139 1839 1988 2090 2441 2674 2882 3076 3138 3188 3192 3212 3129 3064 2974 2998 3066 3069 3036 3172 2654 2907 2377 1728 1450 1832 2450 2899 2840 2880 2780 2766 2761 2698 2548 2502 2282 1948
1388 1612 1562 1402 2049 1873 1378 1409 1565 1698 1767 1561 1901 1960 1902 1803 1501 1784 1832 1639 1698 1870 1563 1925 1810 1744 1867 1677 2386 2294 2445 2371 2400 2456 2395 2288 2151 2162 2272 2060 1941 1792 1629 1601 1614 1577 1707 1512 1677 1865 2121 2256 2536 2708 2866 3053 3133 3314 3192 3165 3318 3239 3262 3205 2897 3154 3088 2688 2260 2174 1402 1230 1505 1863 2667 2580 2543 2556 2608 2656 2387 2248 2356 2395 2665
1530 1556 1506 1045 2101 1887 1594 1496 1510 1508 1616 1930 1792 1826 2150 1961 1771 1555 1868 1660 1680 1385 1848 1993 1958 1820 2078 1874 2121 2279 2543 2279 2167 2374 2303 2198 2191 2230 2190 2207 2018 1833 1747 1724 1666 1558 1649 1634 1830 1960 2090 2255 2567 2595 2580 2615 2834 3022 3179 3342 3372 3314 3224 3197 3048 3107 2899 2054 1894 1798 1928 1534 1348 1910 2644 2490 2438 2351 2239 2430 2530 2428 2298 2256 1843
797 1407 1751 2264 2218 2005 1892 1657 1484 1587 1704 1815 1909 1659 1694 1991 2096 1860 1663 1229 1110 1338 1647 1828 2006 1793 1792 1952 2048 2123 2376 2458 2319 2194 2164 2128 1672 2215 2213 2127 2119 2089 2025 1864 1647 1456 1643 1788 1861 2152 2443 2563 2708 2619 2698 2695 2895 2938 3090 3087 3034 3183 3234 3084 2559 2322 1226 1307 1389 1715 1609 1506 1550 1460 2228 2500 2402 2230 2588 2553 2272 2768 2664 2498 2557
1449 1632 1683 2324 2319 2172 1869 1816 1679 1813 1871 1819 2104 1968 1852 1644 1828 1803 1611 1207 1289 1480 1766 1806 1816 1950 1761 1779 1852 2038 2078 2291 2462 2290 2178 1981 1949 1935 2108 2029 1749 1923 2008 1902 1775 1872 1733 1930 2140 2360 2673 2913 2803 2590 2673 2902 3064 3071 3081 2837 2749 2652 2867 3192 2543 1155 1113 752 1284 1422 1618 2125 1925 2228 2541 2601 2562 2531 2549 2654 2699 2682 2614 2492 2498
1408 2225 2343 2473 2649 1880 1927 1814 1901 2013 2060 1945 1825 1951 1735 1780 1518 1419 1229 1131 1211 1328 1616 1721 1710 1802 1943 1852 1783 1933 2256 2127 2557 2518 2364 2073 2089 1871 2023 1926 1929 1889 1894 1789 1745 1982 2152 2094 2195 2376 2451 2840 2540 2435 2617 2714 2915 2814 2572 2552 2440 2441 2504 2884 2473 1225 1572 1519 1751 1623 1191 1826 2159 2333 2343 2368 2394 2575 2523 2322 2453 2424 2322 2323 2471
1301 2089 1767 2223 2185 1756 1720 1952 1833 1895 1671 1641 1679 1706 1759 1713 1688 1203 1167 1078 1142 1421 1503 1397 1707 1917 1700 1782 1838 1863 2190 2190 2368 2446 2320 2071 1945 2039 1967 1820 2020 2172 1947 1981 1751 1867 2383 2621 2554 2780 2812 2986 2928 2630 2624 2795 3017 2971 2736 2580 2541 2608 2703 2359 1238 1319 1339 1938 1903 1565 1714 2013 2432 2463 2535 2510 2159 2125 2184 2255 2131 2224 2168 2279 2302
1059 1554 1764 1756 2055 2080 1719 1885 1958 1834 1742 1612 1836 2094 1774 1771 1579 1280 1304 1282 1458 1436 1577 1583 1765 1781 1794 2034 2143 2114 2128 1956 2295 2364 2257 2228 2112 2254 2222 2099 1969 2082 2265 2008 1844 1932 2585 3020 2882 2868 3128 3138 3101 3240 2766 2825 2926 2951 2968 2873 2746 2806 2733 3247 782 1301 1512 1418 1477 1550 1948 1991 2129 2050 1991 1993 1945 1931 2126 2149 2189 2214 2185 2092 2151
1469 1602 1844 1961 2289 2215 1955 1912 1969 1945 1928 1737 1850 1938 1782 1655 1701 1905 1557 1247 1374 1593 1534 1674 1787 1428 1714 2042 2132 2211 2073 2142 2292 2275 2211 2297 2398 2385 1896 1995 2290 2328 2388 2490 2121 2394 2918 3031 2842 3017 3183 3145 3192 3125 2935 2916 2901 2904 2930 3036 3146 2948 3190 2267 678 1051 1230 1242 1462 1297 1304 1713 2130 2052 2166 2094 2054 1957 1992 1826 1776 1980 1734 1604 1760
1422 1626 1756 2150 1932 2137 1789 1978 1851 2087 1612 1698 1686 1851 1770 1448 1591 1677 1352 1566 1580 1584 1540 1471 1400 1372 1637 1987 2107 2280 2096 2078 2246 2238 2236 2436 2239 2039 2119 1998 2299 2365 2417 2477 2259 2657 2930 3093 3007 2986 3148 3348 3255 2760 2882 2987 3028 2974 3004 3105 3214 3653 3726 3685 908 913 1194 521 995 1428 1722 1822 2192 1977 1889 1800 1614 1587 1617 1182 1247 1280 1462 1479 1479
1589 1553 1958 2000 2398 2370 1845 2154 1800 1813 1849 1578 1798 1767 1460 1469 1805 1556 1508 1543 1592 1430 1482 1597 1620 1607 1486 1694 2192 2275 2336 2347 2252 2126 2281 2330 2258 2302 2345 2183 2385 2251 2193 2428 2730 2643 3044 2978 3099 3177 3271 3165 3526 2800 3006 3133 2937 2829 2737 2775 3050 3752 3366 3954 1063 869 458 824 1019 1375 1696 1382 1925 1892 1847 1645 1612 1161 1509 1609 1670 1796 1965 1844 1711
1738 1822 1775 1805 1829 1801 1832 1390 2447 2128 2100 1963 1597 1681 1669 1844 1762 1648 1370 1539 1655 1593 1462 1747 1790 1759 1608 1751 2120 2309 2323 2361 2502 2482 2206 2195 2171 2063 2360 2300 2395 2307 2336 2417 2900 2443 2762 3214 3246 3371 3242 3322 2662 2720 2922 2960 2850 2798 2750 2598 3176 3222 3870 4031 1120 856 758 1613 1084 1761 1390 1812 1723 1521 1484 1282 1345 1338 1631 1648 1718 1532 1536 1418 1424
1497 1719 2028 1939 1292 1346 1563 2138 1769 2582 2355 1355 2013 1952 1584 1542 1654 1727 1766 1574 1786 1656 1559 1651 1730 1627 1798 1893 2219 2382 2450 2403 2592 2588 2634 2449 2406 2436 2525 2564 2664 2563 2424 2897 2536 2838 2903 2907 2858 2951 2996 2988 3035 3026 2784 2818 2920 2996 3126 3108 3082 3891 3348 3860 1813 554 1868 1145 1642 1343 1282 2178 2101 2019 1801 1756 1524 1513 1698 1746 1721 1562 1502 1468 1626
1675 1690 2016 2366 1871 2098 2472 1177 1203 1340 2450 1636 1950 1883 1700 1527 1562 1725 1709 1531 1530 1479 1614 1738 1716 1858 1779 1891 2430 2751 2613 2761 2733 2557 2902 2780 2595 2344 2452 2466 2620 2842 2853 2689 2548 2527 2454 2864 2931 3078 3278 3335 3226 3181 3245 3020 3288 3200 3452 3334 3242 2627 3851 3344 784 1306 921 973 1500 1228 2003 2301 2136 2125 1950 1460 1871 1775 1772 1676 1723 1728 1751 1997 2062
1730 1584 2117 2077 1735 1504 1911 1744 2023 1412 1611 1324 1458 1696 1892 1755 1596 1549 1685 1675 1646 1598 1472 1846 1647 1816 1906 2359 1996 2351 2772 2699 2477 2245 2545 2576 2762 2863 2958 2914 2742 2589 2584 2463 2402 2345 2564 2666 2894 3164 3505 3185 2641 2791 3017 3214 2974 3627 2872 3524 3366 3036 3030 1735 792 872 1269 1546 1438 880 2146 2144 2256 2039 2032 1927 2049 1800 2013 2063 2204 2159 2134 2073 2104
1811 1820 1974 1916 1686 1810 2049 1965 1735 1749 1566 1312 1188 1474 1505 1535 1560 1504 2150 1531 1656 1400 1553 1781 2573 2700 2480 2736 2794 1884 2612 2755 1946 1801 1766 2416 2614 2758 2765 2679 2595 2516 2718 2818 2735 2991 3090 2998 3114 3479 2942 3156 2820 2477 2695 3203 3319 3361 3442 3866 2715 1527 1030 696 793 905 1279 1471 916 1697 2153 2426 2230 2234 2170 2216 2030 2160 2102 2085 2209 2154 2243 2319 2376
1823 1740 2016 1970 1771 1726 1983 2033 1920 1491 1118 870 1076 1137 1588 2336 1865 2700 2315 1808 1848 1949 2350 2667 2004 1855 2517 2565 2631 2710 2794 2033 1618 1641 1947 1919 2253 2600 2703 2768 3030 3211 3134 3145 3528 3381 3343 3284 3294 2794 3228 3007 3132 2882 2747 2618 2674 3509 3869 3108 2484 987 1106 928 1051 1148 1639 1528 1078 1961 2060 2538 2603 2495 2572 2319 2467 2524 2549 2304 2056 2280 2410 2549 2539
1546 1610 1921 1968 1873 1642 2024 2004 2384 2543 1396 1098 1258 1884 2388 2487 2199 2589 2022 2537 2747 3012 2802 3034 2876 2140 3066 3068 2385 2815 2817 2375 2251 2427 2300 2003 2815 3043 2940 2959 3100 3230 3393 3332 3385 3384 3390 3489 3353 3473 3429 3200 2804 1549 1627 1869 2197 3044 3309 1971 1437 987 1002 1122 1068 1320 1708 1407 961 2108 2056 2370 2736 2789 2640 2544 2476 2407 2602 2573 2522 2779 2955 3160 3189
1261 1625 1957 2184 2057 1966 2138 2172 2072 1986 1845 1840 1996 2113 1636 1470 1989 2193 2194 2202 2054 2557 2947 2641 3141 3116 3005 1797 1682 1282 1359 1952 2186 1623 720 1171 1900 1831 2613 2302 2566 3008 3402 3512 2566 2272 3021 2653 2889 3422 3124 2429 1386 1538 1583 1664 1575 1149 1222 963 1073 1171 1059 894 1352 1454 1810 1214 1574 2204 2108 2298 2756 2964 2879 2706 2489 2578 2481 2485 2710 2830 3031 3115 3068
1057 1720 2080 2154 2218 2351 2018 2070 2175 1953 1672 1850 1871 1927 1794 1308 1334 1871 2010 2395 2526 2712 2775 3122 3201 2724 1919 998 835 819 1102 1164 1081 1034 1210 1614 1614 2192 3070 2677 2245 2018 2959 2680 1330 1742 2576 1616 2040 2063 1640 1432 1034 1398 1216 1933 1644 754 1209 1339 1102 1061 1179 1334 1490 1696 1691 1265 1971 2326 2361 1916 2720 2881 3131 2890 2816 2853 2996 2959 2940 3031 3147 3232 3057
1211 1897 2180 2468 2445 2441 2573 2105 2244 1973 2273 2298 1954 1744 1992 2202 2300 2412 2355 2469 2597 2469 2345 2222 2365 1822 920 739 534 571 570 881 1184 1607 2443 1883 2062 1972 2607 2566 2215 2172 1980 1984 2174 2419 2354 2280 2068 1757 1934 836 773 1374 1036 1392 1001 764 1005 1196 1044 1273 1360 1519 1670 2141 2038 1808 1829 2812 2498 2266 2554 2494 3114 3340 3278 3166 3312 3343 3390 3591 3675 3697 3819
1458 1931 2064 2459 2607 2487 2715 2393 2035 2040 1850 2227 1810 1972 1927 2037 2423 2548 2296 2164 2173 1989 1976 2193 1774 561 930 697 530 465 595 884 1610 1890 2197 2187 2676 1494 2140 2323 1972 2164 2071 1726 2423 2258 2246 2154 2228 1587 1715 1818 1077 1330 1054 818 1216 710 921 924 1387 1446 1324 1580 2173 2336 2118 1992 2209 2761 2542 2980 2671 2554 2932 3316 3584 3635 3764 3836 3723 3862 4104 4047 3980
1391 1849 2174 2290 2425 2415 2380 2162 2360 2331 2290 2088 2095 2263 2138 1877 2251 2282 2219 2245 2032 1924 1833 1852 1868 1509 1012 807 806 531 576 814 1151 1840 2340 2328 2084 1920 2373 2031 2054 2199 2255 2131 2304 2428 2286 2402 2713 2324 2395 2079 896 1230 1084 1059 1236 958 819 952 1392 1440 1437 1402 2046 1778 2173 2404 2126 2586 2730 3031 2817 2970 2895 3262 3467 3891 4076 4140 4268 4101 4304 4404 4400
1401 1747 2167 2327 2337 2203 2071 2277 2398 2408 2270 2122 2258 2434 2314 2444 2264 2319 2424 2171 1807 1465 1536 1402 1433 1552 1301 1158 867 798 845 1237 1899 2491 2528 2216 2066 2025 1984 2125 2298 2215 2094 2244 2469 2389 2568 2563 2612 2591 2468 1631 1258 1936 1582 877 551 1001 1099 939 825 1036 1288 1386 1324 1564 1539 1769 1822 2045 2903 2931 3221 3211 3347 3472 3669 4102 4251 4147 4126 4314 4393 4573 4640
1334 1707 2012 2104 2103 1998 1982 2279 2310 2383 2193 2228 2469 2422 2392 2120 1946 1956 2052 1766 1455 1348 1132 815 873 1462 2728 2778 1956 1577 1357 1948 2550 2647 2612 2394 2080 1655 1996 2184 2244 2299 2005 2127 2358 2642 2523 2602 2875 2789 2672 2391 2030 1871 816 1155 1033 903 755 628 993 808 774 1000 803 774 1019 1481 1702 2310 2231 3414 2950 3349 3648 3792 4160 4288 4418 4470 4655 4902 4927 5018 5170
1293 1560 2090 2182 2020 2008 2163 2178 2184 2114 2107 2295 2467 2403 2215 1786 1536 1561 1364 1341 1376 1096 866 858 1076 1686 2294 2600 3250 2792 2722 2939 2895 2593 2562 2312 2168 2067 1850 1999 2228 2494 2466 2154 2784 2933 2908 2666 2376 2633 2444 2018 1249 1607 1744 943 761 690 1150 807 680 888 1099 918 726 734 442 739 1085 787 2598 2849 3260 3635 3830 4149 4306 4378 4480 4504 4863 4943 4859 4952 5134
1314 1455 1901 1973 2083 1974 2042 1990 2060 2254 2024 1986 1985 1947 1621 1324 1273 1187 1234 1267 1051 894 1045 1120 1219 1852 2481 3508 3621 3991 3600 2986 3794 2998 2822 2483 2380 2306 2422 2485 2625 2495 2638 2733 2944 3115 2702 2447 1996 2256 2761 1834 1187 1395 1080 857 1159 1255 730 637 250 428 600 1027 814 503 331 535 826 666 822 753 3373 4129 3975 4390 4190 4122 4126 4494 4420 4476 4983 5061 5022
1373 1534 1630 1842 1848 1911 1699 1691 1701 1646 1587 1541 1512 1249 1050 914 896 926 1261 1037 715 772 1058 1094 1466 2028 2620 3440 3637 4029 3802 4065 3454 3485 3479 2366 2700 2676 2518 2726 2689 2525 2368 3166 2775 2738 2521 2893 2573 1927 1792 1365 1913 1793 1268 716 680 1112 599 995 738 809 797 656 224 606 879 620 300 885 1401 1445 2671 1977 2946 4527 4243 4444 4727 4471 4832 5128 5145 4934 5054
1376 1385 1580 1615 1624 1630 1301 1432 1414 1378 1348 1318 1136 980 1010 752 774 934 1061 965 782 864 770 736 1123 1735 2628 3410 3506 3452 3832 3995 3796 4525 2594 2322 2324 2699 2758 2754 2850 3204 2407 2546 2929 2602 3020 2777 2440 2153 1891 1653 1584 1240 1370 824 262 556 1140 1260 1015 864 717 567 313 162 453 446 440 186 1082 862 439 2026 1422 3417 4537 3304 4347 4953 5008 5071 5253 5048 5288
1147 1494 1600 1480 1556 1487 1248 1365 1324 1287 1255 1209 1200 1237 850 938 938 1106 1132 921 726 653 682 790 1396 1620 2159 3108 3641 3792 3787 4116 4467 3824 2977 2266 2190 2544 2952 2522 2787 3006 2681 2692 3264 2716 2838 2639 2923 2518 2401 1490 1443 1174 791 897 562 442 506 402 382 695 389 689 834 440 364 416 532 630 647 573 696 1680 1099 772 1178 2675 3797 4462 4443 4875 5455 5336 5243
1125 1449 1499 1579 1476 1294 1168 1143 1335 961 1157 1189 1360 1172 1367 1130 1086 1056 598 570 652 720 1232 1663 1838 2193 2342 2813 3563 3736 4210 4255 3815 3828 3801 2028 2197 2289 2116 2238 3100 2994 3185 2420 2831 2723 2984 2055 2200 2704 2930 2721 986 940 1234 1078 588 513 536 403 737 704 434 840 558 405 140 176 674 410 503 534 740 1514 2653 1308 1338 1076 3575 3279 4970 4545 4911 5338 5238
1144 1289 1400 1390 1341 1170 1088 1058 1066 1186 1433 1573 1766 1685 1539 1288 1348 1381 1702 1625 1560 1695 1784 1755 1466 1691 2031 3149 3610 3380 3804 3895 3895 3642 4570 2743 2636 2850 3064 3079 2941 2923 3194 2886 3238 3002 2930 2918 1996 2154 2539 2782 1676 1324 1341 1168 603 518 355 397 457 252 510 305 235 247 303 192 275 103 483 470 719 619 469 252 511 1006 1026 4041 2484 2864 3108 4080 4726
966 1220 1295 1278 1237 1230 1282 1133 1057 1196 1652 1703 1818 1906 1462 1655 1635 1679 2244 1762 1660 1149 1858 1967 1872 1441 2230 3276 3388 3433 3460 4130 3466 3330 4310 2565 2741 3371 3382 3179 2758 2778 3578 2882 2638 2898 3519 2330 2864 2890 2609 1681 1943 1141 1151 1515 734 721 462 274 630 932 644 228 692 419 451 299 253 631 440 556 403 735 488 554 668 970 1369 1111 1407 1660 1292 2639 4692
1110 1194 1383 1295 1172 1539 1478 1300 1266 1296 1743 1856 1841 1570 1350 2120 1586 1844 2294 2222 2006 1856 1975 2158 1754 1943 2352 2595 3666 3374 3560 4033 4026 3802 4056 3706 2947 3410 3987 3725 3052 2896 3602 3292 3598 2959 3078 2656 2138 2524 2938 2289 1321 1872 1420 1612 678 654 520 354 448 560 898 393 753 643 404 434 168 334 630 455 578 401 638 544 478 335 695 1507 2064 1771 2191 2416 3066
1353 1200 1265 1318 1072 1795 1727 1738 1768 1496 1744 1647 1732 1309 1445 2156 1810 1435 1680 1995 2145 2167 2055 2000 2044 1520 2183 2934 3369 3072 4125 4090 4059 4704 3408 3246 3760 3953 4239 3942 3607 3307 3452 3631 3106 3183 3354 3774 2498 3014 2202 1804 1826 1465 448 786 1003 640 962 677 624 647 558 614 749 991 627 504 407 306 445 744 1288 1392 936 583 566 540 917 2234 1862 2000 2379 2753 2791
1235 1160 1178 1351 1213 1402 1694 1698 1904 1393 1326 1120 1438 1544 2075 2140 1829 1477 1476 1925 2075 2113 2200 1830 1824 2604 3352 2712 3635 3636 4239 4537 4604 4593 4365 4071 3832 3751 4162 4275 4136 3076 3121 2983 3271 3531 3330 3246 2582 3276 2657 2215 2234 1317 661 2336 2075 1577 1522 869 1086 658 576 448 501 434 413 488 423 420 317 902 1300 1083 986 598 1651 2251 1360 1814 2082 1439 1797 2027 2110
1094 1000 1176 1231 1199 1495 1448 1665 1712 1203 1226 1090 1651 2094 2158 2080 1698 1408 1405 1824 1767 1825 1812 1696 1810 2338 2830 3156 3651 3681 4176 4121 4103 3684 3734 3904 3710 3883 3502 3938 3798 2916 3282 3872 2647 2877 2715 2473 3068 1758 2271 2339 2102 1572 1619 1248 2138 667 890 2381 1209 1517 826 672 629 595 240 436 582 725 352 83 1496 1585 397 184 1265 1703 1030 851 1081 1340 2046 2161 2198
958 827 1038 1100 1148 1521 1696 1774 1614 1332 1319 1411 1612 2157 2167 2130 1876 1882 1554 1629 1596 1676 2059 2314 2088 2116 2619 3102 3572 3081 3966 3003 3327 3128 3128 3893 3812 4304 3446 3547 3487 3094 3350 3450 2887 2803 2122 3370 1962 2031 2065 2584 2222 2260 1780 1449 895 2103 2957 1592 953 1708 1683 2583 1711 1504 692 863 1102 2331 1235 242 107 556 569 431 886 1128 1700 867 1567 1950 2254 2719 3375
799 680 841 1008 953 1304 1772 1858 1749 1446 1399 1782 1981 2255 2650 2330 2956 2443 2523 2458 2160 2418 2599 2280 2503 2626 2653 2599 3023 3530 3250 3145 3091 3466 3315 3888 4060 4425 4257 3831 3764 3405 2622 2780 2728 3320 2739 2758 1903 3882 3468 1603 1068 1763 2235 1920 1312 1053 1635 2880 1920 2033 2151 1601 741 2162 1126 976 424 591 1085 1217 957 1080 685 586 649 1023 609 1037 986 666 2232 2489 2463
840 716 694 771 789 1253 1718 1939 1802 1623 1437 1985 2242 2430 2460 2453 2860 2432 2120 2025 2096 1455 1738 1534 1682 1799 1997 1926 2736 2564 2647 3510 3673 3664 3544 2833 3736 4009 4205 4161 3833 2632 2930 3600 3388 2016 1320 3404 2653 2585 3072 1622 1678 1014 1867 1921 1129 1445 1258 1534 1420 1713 2016 1517 1092 2998 2640 2051 884 724 961 699 1101 551 1350 1118 755 1579 2416 1088 1671 1324 1716 2034 2311
553 690 845 553 638 1186 1762 2035 1775 1754 1478 2101 2608 2304 2306 2292 2260 1769 1798 1498 1516 1218 1571 1292 1465 857 2200 2494 2377 2782 2951 2996 3046 3638 3663 4164 4599 4282 4024 3708 3379 3354 2695 2448 2772 2200 1773 2423 2989 3212 2899 2305 3500 2259 2028 1944 1599 1911 1445 1360 1302 1139 1539 1448 1729 1915 2692 2797 1845 776 350 667 616 545 1292 649 920 2119 1820 1507 2279 1197 2400 2295 2315
383 641 864 712 764 1249 1631 1814 1758 1821 1551 1972 2482 2564 2201 2210 2172 1534 1359 1104 1215 1744 1748 1804 1785 2057 2024 2253 2055 2464 2035 3158 3346 4325 3846 3459 4296 4106 3979 4087 3594 3650 2866 3223 2949 2562 2962 3920 2546 3082 2500 2682 2937 3949 2099 2331 1402 2938 1415 1202 1569 2130 1434 856 1770 1204 1307 1651 1478 980 828 526 1377 463 760 853 874 833 1319 1564 1639 1196 2715 3068 2928
269 400 663 1006 1229 1272 1648 1806 1808 2105 1581 1925 2055 2274 2311 2303 2181 1729 1525 1551 1068 1944 1896 2198 2461 2512 2500 2801 2634 2497 1920 2398 3664 2941 3529 4177 3064 4365 4052 4382 3638 3826 1971 2525 2563 2775 3046 3520 3452 2880 3997 3922 4020 2662 2709 3306 1705 2069 2069 2726 1801 1215 1497 1245 1596 1706 1945 1500 1527 1071 1031 811 1031 1017 1144 775 810 869 1006 1409 1962 2414 3660 3202 2629
246 295 431 808 1191 1363 1735 1863 2193 2193 2571 2322 2087 2055 2448 2494 2182 1782 1950 1980 1837 1865 1844 2234 2965 2684 2984 3709 2872 3563 2674 2186 2323 3506 3602 3852 3463 3964 3674 3275 2944 3337 2353 3253 3038 2022 2326 2761 2337 3217 3556 2833 2909 2801 3054 2753 2302 1928 1596 2577 2278 1743 1838 1649 1039 1126 1267 1193 1260 1350 893 555 1016 1124 874 1523 1526 804 1747 1277 1620 2177 2197 2993 1880
322 252 391 605 1064 1718 2144 1903 2557 2317 2863 3009 2287 2215 2307 2488 2202 2107 2064 2103 2508 3039 3038 3105 3071 3056 2972 2941 3339 2818 2874 2786 2584 2033 3099 2602 3228 3708 3580 3270 2794 3218 2187 3420 2434 2760 3124 2731 2846 2967 3600 3732 3632 3196 2140 2594 2954 3234 2268 1989 2582 1245 1250 1629 1448 1805 1667 1071 1212 991 566 494 850 760 1089 1102 1482 1358 1274 1481 2174 2321 2746 2245 1990
Wind_Speed
8 2 2 1 2 4 3 0 0 1 1 2 3 6 7 8 8 7 6 5 5 5 7 10 11 12 11 7 10 9 7 10 17 16 13 14 11 17 13 16 15 16 18 14 11 10 9 9 8 7 5 4 5 6 8 8 9 10 11 11 11 11 10 9 8 9 10 12 12 7 2 7 8 8 7 7 7 4 2 5 8 7 6 5 5
5 3 2 2 1 2 1 1 1 1 1 3 3 4 5 6 8 7 5 4 5 6 8 8 7 7 4 6 7 7 7 10 13 11 11 13 13 13 15 17 13 13 14 16 20 10 10 8 7 8 7 6 6 6 6 6 7 8 9 10 10 9 9 8 8 9 10 10 10 8 5 7 11 12 11 11 9 8 9 8 7 6 6 5 5
2 2 3 2 2 2 2 2 3 1 0 2 4 4 5 6 7 7 5 4 5 5 6 7 7 8 8 10 4 5 8 11 11 12 12 12 15 14 14 15 15 12 12 16 11 18 13 9 9 9 8 6 4 6 5 5 6 8 8 9 9 9 8 8 7 8 9 9 9 9 8 8 9 11 11 11 11 10 9 7 6 5 1 3 3
1 2 3 1 2 2 3 4 4 3 1 3 5 6 7 7 5 5 5 5 5 4 4 6 5 7 4 4 3 5 12 12 12 13 14 14 14 14 13 15 14 12 14 12 10 8 14 11 8 9 8 6 4 6 5 5 6 8 9 9 8 8 7 6 5 5 4 5 6 4 2 3 5 9 9 9 9 9 9 8 7 6 5 4 4
1 0 1 2 1 2 3 4 4 4 3 3 5 7 8 6 5 5 4 4 5 6 5 5 5 7 7 4 7 6 9 10 10 14 16 15 14 13 13 15 16 18 18 16 12 10 9 17 18 13 6 6 5 6 5 5 6 8 9 8 6 5 4 4 4 5 5 6 5 4 4 4 3 7 7 7 7 7 6 6 4 3 3 3 3
1 1 2 1 1 3 4 4 3 4 3 3 6 7 7 7 6 4 4 6 7 8 5 6 7 8 6 7 7 8 9 11 15 15 15 15 14 14 13 16 17 17 17 15 13 10 10 8 8 11 8 8 7 6 4 5 6 7 8 8 6 4 4 4 6 7 9 12 13 9 3 2 3 3 5 4 4 4 4 4 4 4 4 4 5
1 3 2 1 0 3 3 3 4 4 3 4 6 7 7 8 9 6 6 7 7 7 7 8 9 7 10 9 3 7 11 15 17 16 15 15 14 14 13 15 18 16 14 15 13 11 7 9 7 6 9 7 6 6 5 6 7 8 7 6 6 5 4 5 7 9 11 11 10 9 3 3 3 1 4 3 2 2 1 1 3 5 6 7 8
0 4 3 1 1 4 3 2 3 3 4 5 6 8 7 8 11 9 8 8 8 8 9 11 8 7 13 5 7 10 15 16 16 15 15 14 14 14 13 15 17 15 13 16 14 13 9 9 2 6 8 9 6 6 5 5 6 6 6 6 5 5 6 7 10 11 9 11 7 8 5 3 3 1 3 3 2 1 2 2 3 5 7 6 5
1 2 3 1 5 7 3 2 2 3 3 4 5 7 7 8 11 12 9 9 11 10 9 12 12 7 9 10 11 11 14 15 15 14 14 14 13 13 13 15 16 15 15 16 14 12 13 10 12 9 7 7 8 7 7 7 7 7 7 6 5 5 8 10 14 17 12 8 6 5 3 1 2 2 3 2 0 2 4 6 5 4 7 8 8
1 2 1 3 4 6 4 2 3 4 4 5 7 7 8 9 11 11 9 7 11 10 7 12 12 10 10 12 12 13 14 15 14 14 14 14 14 14 15 14 13 13 15 14 12 11 10 9 13 11 10 9 9 8 8 8 8 8 7 6 6 7 10 16 16 14 9 5 6 5 6 2 3 1 1 0 1 2 4 7 8 8 6 5 5
2 3 4 3 6 5 3 3 3 4 7 8 8 8 9 11 12 10 6 7 11 12 9 9 13 10 8 11 9 10 12 13 13 14 14 13 13 12 13 11 11 12 14 13 9 7 9 9 8 7 10 10 9 7 7 7 7 7 7 6 8 11 13 19 22 11 11 7 2 2 3 6 2 1 1 3 5 5 7 7 6 5 5 4 3
2 8 3 4 5 5 3 4 4 6 8 9 10 9 9 12 13 10 9 6 7 10 7 8 10 10 10 11 8 6 10 10 12 11 10 10 10 11 10 7 7 9 12 10 7 10 9 7 6 5 11 12 10 7 7 7 6 6 7 8 10 15 19 21 19 7 7 6 6 5 2 2 2 2 3 5 7 8 8 7 5 4 5 4 4
1 2 1 2 2 4 5 4 4 5 7 8 6 10 10 11 14 14 12 7 6 7 9 8 7 9 8 10 11 9 8 7 7 7 5 6 6 6 6 6 5 6 8 7 5 11 12 8 8 9 12 11 10 8 6 6 6 7 8 10 14 17 21 23 13 9 7 6 7 5 3 4 5 5 6 8 9 9 7 6 5 5 4 4 2
2 1 3 2 2 6 6 6 6 5 7 10 8 9 12 13 13 14 13 10 8 7 10 9 8 9 6 5 6 6 6 4 2 1 2 1 0 1 3 4 4 5 5 4 5 10 10 9 9 11 12 12 10 10 6 5 6 8 10 12 15 19 19 23 8 6 8 8 6 6 6 7 7 7 9 9 10 8 7 5 4 4 3 2 3
4 6 2 1 3 4 8 7 7 6 7 8 7 7 11 12 14 16 16 14 10 10 8 9 10 8 6 4 3 3 4 2 2 4 4 4 3 2 1 1 4 8 8 6 6 7 6 9 11 13 12 10 10 8 6 7 8 9 12 13 15 17 20 16 7 7 9 10 9 6 6 7 6 8 9 9 9 7 6 5 5 2 3 3 4
7 2 0 2 4 4 3 6 6 6 6 6 5 5 6 10 11 14 15 15 12 9 8 8 8 8 5 1 4 3 1 1 3 6 7 6 5 4 2 2 4 7 8 7 8 10 8 9 12 13 13 12 10 7 7 8 9 10 11 13 17 18 20 19 7 9 10 9 11 10 6 7 6 9 10 10 9 7 6 5 4 4 2 4 5
10 2 2 2 2 2 3 4 4 6 5 5 5 3 5 6 7 12 13 12 14 12 9 8 6 6 4 3 2 1 1 2 4 5 6 6 7 6 4 4 4 5 6 9 9 11 10 11 13 14 14 12 12 8 9 10 10 11 11 13 14 18 19 21 10 10 12 14 14 9 7 8 8 10 10 10 9 7 5 4 3 2 3 4 6
7 7 5 1 3 1 3 3 3 3 2 3 5 3 5 7 6 9 9 9 11 10 8 8 6 4 2 2 1 3 3 3 5 6 5 6 7 8 7 5 6 5 5 8 12 7 9 12 14 16 16 14 11 11 11 11 11 11 12 13 12 17 20 22 14 10 11 16 13 10 10 7 6 10 10 10 8 6 5 4 2 3 5 5 6
3 10 1 4 7 9 6 3 1 2 1 1 2 1 5 6 6 7 8 8 7 8 8 7 6 4 4 6 5 4 3 4 5 6 6 6 8 10 9 9 8 7 9 10 7 7 10 14 15 15 15 13 13 13 12 12 13 13 15 14 16 17 21 19 16 9 12 13 12 10 9 6 8 9 9 10 7 6 6 5 4 4 7 6 6
3 8 6 5 4 2 2 7 7 3 2 1 1 1 3 4 6 6 7 7 6 5 5 5 6 8 9 7 6 5 5 6 5 7 7 7 10 10 10 10 10 11 11 8 8 10 13 15 17 17 16 16 15 14 14 13 13 16 17 19 17 21 18 18 10 12 11 14 11 10 6 5 8 10 10 10 8 8 7 6 5 5 7 8 8
2 1 7 7 8 9 4 2 3 6 2 1 1 0 2 4 4 4 7 6 7 6 4 9 10 9 6 5 4 8 7 6 8 8 7 9 9 10 11 11 12 13 11 11 11 13 15 17 17 18 18 19 19 17 16 16 16 18 21 21 22 17 16 15 9 10 10 10 9 9 5 6 8 10 10 10 10 10 7 7 7 8 8 9 8
2 1 1 1 2 2 2 0 5 5 2 4 2 1 1 2 1 2 2 4 6 7 9 6 7 6 5 6 7 9 8 9 8 7 8 8 8 9 10 11 12 13 13 14 15 16 18 18 19 19 20 21 21 17 15 17 18 20 22 23 19 13 14 12 10 12 10 9 9 6 6 8 8 10 11 11 12 11 10 9 8 7 8 6 7
2 2 2 3 2 3 2 1 5 5 2 8 3 1 2 1 3 3 1 4 5 6 5 5 5 5 8 4 10 12 10 9 9 8 8 7 8 9 10 11 12 13 15 17 18 19 19 20 20 20 22 22 19 19 13 12 14 21 22 19 15 10 12 13 11 11 11 9 9 5 6 8 10 11 11 13 12 11 11 10 7 8 7 7 6
3 2 2 2 3 4 4 4 3 3 6 7 5 3 3 4 5 5 3 4 5 6 5 6 7 7 8 8 7 10 9 9 5 2 5 9 11 10 11 12 13 15 17 18 19 20 21 22 21 22 20 18 18 16 10 10 10 13 16 14 13 12 13 13 11 12 11 9 8 6 7 9 12 11 11 11 13 12 11 10 8 7 7 6 7
2 2 2 2 3 3 4 2 3 5 8 6 7 6 4 4 9 6 6 6 4 7 7 7 9 9 10 9 8 7 8 9 10 10 11 11 12 12 13 13 15 16 18 19 17 15 20 17 18 19 19 16 14 13 12 10 14 11 14 14 15 14 11 13 14 12 11 10 7 7 9 10 12 12 12 13 13 13 10 10 9 8 8 7 7
2 3 0 3 4 3 5 5 6 6 5 8 8 7 8 6 7 5 6 8 6 8 8 9 9 11 11 9 9 9 10 12 13 13 11 11 13 14 16 16 15 12 15 18 14 14 19 17 16 17 17 13 13 16 14 15 11 10 12 13 13 13 15 14 14 13 11 10 8 8 10 11 13 13 13 14 14 13 12 10 8 8 8 7 7
1 0 1 0 1 2 2 5 5 3 2 2 4 5 6 4 4 5 6 7 8 8 9 9 10 11 10 9 10 11 12 12 12 12 10 8 9 11 15 16 10 12 13 12 16 17 18 17 16 16 18 14 11 11 13 16 13 10 10 13 14 14 15 15 14 13 11 10 9 11 12 13 14 14 14 14 15 14 14 13 11 11 10 9 9
1 2 1 0 1 3 2 1 1 3 4 4 3 3 3 8 6 7 8 8 9 9 10 11 12 12 14 13 13 13 12 11 12 11 11 10 13 8 9 15 8 11 11 12 15 16 17 16 16 16 17 17 14 11 10 13 14 11 11 13 17 16 15 16 15 13 11 10 10 12 13 15 15 15 15 15 16 15 15 14 13 13 12 11 11
3 2 1 1 2 2 1 1 1 2 2 3 3 5 4 5 6 7 8 10 11 11 10 10 12 13 15 15 14 12 11 10 11 11 10 10 12 11 15 8 9 10 12 12 14 15 16 16 17 15 16 16 13 13 16 13 12 11 12 12 12 15 16 15 17 16 13 12 11 10 14 14 16 16 16 16 16 16 15 15 14 13 13 12 11
4 2 1 2 2 2 1 1 2 3 4 4 5 5 6 6 6 7 9 11 11 10 9 11 12 12 14 16 16 13 12 12 10 10 10 8 10 8 9 8 9 12 12 12 14 14 14 16 16 16 16 15 15 17 18 14 14 16 14 12 14 14 16 16 15 16 17 15 13 11 12 14 16 17 17 17 17 16 16 15 14 13 12 11 10
4 2 0 2 3 3 3 3 3 5 5 6 7 6 7 7 7 8 9 9 9 10 11 10 10 12 14 15 15 15 12 10 9 9 9 9 7 9 8 8 9 11 11 10 14 15 16 16 17 15 15 16 15 17 16 16 14 12 12 13 14 12 15 13 11 13 10 14 15 12 10 13 15 17 17 17 17 16 16 15 13 13 11 11 10
4 2 1 2 2 3 4 4 4 6 6 6 6 7 7 8 9 9 9 9 11 11 11 12 13 13 12 13 16 15 12 11 11 9 8 9 7 7 8 9 9 10 13 14 12 15 15 15 13 17 17 15 15 18 16 15 14 14 14 10 10 12 10 12 12 12 8 8 9 11 11 10 12 14 16 16 15 15 15 14 13 12 11 11 10
2 3 0 0 2 3 4 5 6 7 7 7 7 8 8 8 10 10 10 11 12 12 13 13 13 12 13 13 12 11 10 9 10 10 9 8 8 7 6 8 9 10 12 11 12 14 13 13 15 15 17 14 14 15 13 15 16 13 10 10 12 12 11 11 10 4 7 4 8 9 6 7 6 12 15 15 14 14 12 12 12 12 11 10 10
2 1 1 1 3 5 6 6 6 7 7 8 8 9 9 9 10 9 11 12 12 12 12 12 12 11 11 10 10 10 10 10 9 9 14 8 7 8 7 8 9 11 10 12 12 14 14 16 15 18 11 16 15 14 13 11 9 10 10 9 8 8 9 5 7 8 6 7 4 8 5 4 6 9 8 11 13 13 12 9 9 10 10 10 9
2 2 2 2 3 4 6 7 6 7 8 8 9 9 10 9 9 10 11 12 11 12 11 11 10 9 9 10 9 9 9 10 10 12 10 9 5 6 8 8 10 12 9 11 14 12 14 13 10 18 11 14 12 15 13 10 9 12 12 9 8 10 6 8 7 6 2 3 3 2 2 4 6 5 8 4 11 14 13 10 8 9 9 10 9
3 2 2 1 3 5 5 6 5 6 8 9 10 10 10 10 10 11 11 11 11 11 11 10 10 10 9 9 9 9 9 10 11 11 13 9 6 6 7 8 10 11 11 11 13 10 12 12 11 14 11 10 9 9 10 11 9 6 5 4 3 5 3 6 4 4 4 3 0 2 3 3 5 2 6 4 6 6 11 9 7 7 9 10 9
5 3 1 2 4 5 5 5 5 7 7 8 9 10 11 11 10 10 11 12 13 12 12 12 11 13 13 9 9 9 9 9 9 11 14 12 7 5 5 6 10 10 11 9 9 9 10 8 12 15 15 18 16 12 9 8 6 3 2 4 4 3 4 6 2 1 0 2 5 6 6 3 4 4 5 4 6 2 5 7 5 7 8 9 9
6 3 1 2 3 4 4 6 7 6 8 8 9 10 10 10 11 11 10 10 10 10 11 11 10 11 12 11 9 9 9 9 9 9 7 12 8 9 7 8 8 8 9 8 10 10 11 10 9 11 11 10 8 9 7 7 5 2 3 1 2 2 1 2 1 3 4 4 3 2 4 7 6 4 2 4 5 2 0 8 11 10 13 12 10
3 5 2 3 4 4 7 7 6 6 7 7 7 9 8 10 10 10 11 10 11 12 12 11 10 6 8 9 8 8 8 9 9 8 10 10 6 6 7 9 6 7 9 7 6 9 10 11 11 8 12 11 11 12 10 10 4 2 0 1 2 2 3 2 4 2 3 4 7 5 8 9 10 6 5 7 8 7 7 4 7 6 8 9 8
4 5 4 3 4 4 5 5 5 6 6 6 6 6 7 9 8 9 10 11 12 11 10 11 9 12 9 7 8 9 8 9 9 9 7 10 7 5 6 8 6 5 8 9 9 7 9 8 8 10 10 10 10 8 6 8 4 5 3 1 2 3 3 2 2 1 5 9 6 9 11 14 10 13 12 11 7 5 4 7 5 4 3 2 4
6 4 3 3 3 3 4 3 4 5 5 5 6 6 6 8 8 8 8 9 10 10 10 10 11 9 8 9 8 8 9 9 9 8 7 6 7 5 5 7 6 5 6 7 8 10 10 10 7 8 10 6 10 10 5 8 7 4 2 1 2 3 5 5 7 7 7 6 10 10 8 3 4 5 3 2 5 3 7 9 6 2 4 6 9
5 4 2 3 4 3 3 3 4 4 5 5 6 6 6 7 7 8 9 9 9 9 10 9 10 10 11 9 8 9 9 8 8 8 7 5 5 4 4 4 5 4 5 6 6 7 9 10 11 8 8 13 12 10 8 10 9 2 4 2 1 2 1 6 5 7 11 7 8 9 8 12 5 7 8 10 7 9 10 9 9 6 7 8 6
5 5 3 3 4 4 3 3 4 3 4 5 7 8 7 7 7 7 7 9 8 8 8 9 9 9 7 8 10 9 7 8 6 5 5 5 5 5 3 2 4 3 4 5 3 6 7 8 8 9 11 11 9 10 6 4 4 1 3 5 3 2 1 1 5 2 5 10 12 8 4 nan 23 19 10 8 10 10 10 10 9 8 8 7 6
3 4 3 4 3 4 4 2 4 3 4 4 5 6 7 6 7 7 7 8 8 11 9 9 8 7 6 6 8 7 6 5 4 3 8 7 5 5 5 4 3 4 5 4 5 5 6 9 9 8 9 6 9 8 11 5 7 6 2 4 4 7 3 1 2 6 8 2 9 6 7 2 8 9 8 7 12 11 8 7 13 12 10 7 7
2 3 2 3 3 5 4 3 3 3 3 4 3 4 5 5 7 6 7 9 7 8 7 6 7 7 6 5 5 5 5 6 6 7 6 6 6 6 6 5 4 2 3 2 3 4 3 4 5 6 7 8 3 7 7 7 1 4 1 3 4 5 4 10 8 1 4 8 7 9 4 2 7 11 7 8 7 10 7 6 4 9 12 8 6
2 2 1 3 4 5 5 3 3 3 2 4 1 2 2 3 4 4 4 6 5 4 5 4 4 4 3 4 4 3 3 5 6 6 7 5 4 5 5 4 1 2 5 5 4 3 3 2 5 4 4 3 6 6 3 7 3 4 4 6 5 2 4 3 2 5 3 4 3 2 3 10 7 3 3 4 7 6 1 3 14 5 8 8 6
3 2 1 3 4 5 6 4 3 3 3 3 1 3 2 3 4 4 5 6 6 5 6 5 4 5 9 6 3 3 4 3 4 5 6 5 5 5 4 4 4 2 3 2 4 6 1 3 6 6 5 5 5 5 7 3 6 5 4 1 5 4 4 4 3 3 1 5 4 6 6 11 10 8 14 9 14 15 15 13 3 5 9 8 8
3 3 2 3 4 5 5 3 3 3 3 4 2 3 4 5 6 7 5 5 6 6 6 6 5 7 3 4 3 3 3 5 4 5 3 3 3 3 4 5 5 4 3 4 5 4 9 6 5 6 5 5 5 4 6 7 8 5 3 7 5 3 5 8 4 3 5 3 5 5 4 1 6 3 11 4 6 13 10 6 10 5 8 4 7
4 4 3 4 5 4 4 2 3 3 3 4 3 3 5 5 6 6 7 7 6 6 6 7 6 6 5 6 6 3 3 4 5 1 3 2 3 3 3 4 5 3 4 4 4 4 4 5 4 2 3 3 5 4 4 6 9 5 1 4 4 5 5 4 5 6 6 3 2 1 1 6 9 3 3 2 5 1 3 5 9 10 9 6 7
5 5 4 5 5 4 3 2 3 2 4 4 3 3 4 5 5 5 4 6 6 7 7 6 7 6 6 5 6 7 5 4 4 6 3 4 4 2 5 4 4 6 4 5 7 5 3 2 4 4 5 6 4 5 5 5 6 6 6 3 2 4 4 3 4 5 3 3 4 2 3 6 5 3 4 1 2 3 4 3 7 3 6 10 11
6 6 5 6 5 4 3 2 2 2 4 3 2 2 3 4 5 5 3 4 5 6 7 6 6 6 7 6 5 6 8 5 5 5 6 6 4 5 4 6 5 2 6 4 4 3 1 8 3 2 4 5 5 6 6 7 6 4 6 5 3 4 3 4 2 3 5 4 3 4 4 3 3 3 4 7 4 2 3 4 14 12 16 5 7
Wind_Direction
76 84 163 272 126 107 122 152 203 28 333 299 286 277 271 270 264 248 239 218 196 199 215 210 202 203 205 185 124 222 219 228 230 209 228 243 240 244 251 239 224 210 191 204 235 257 261 265 290 300 285 258 242 229 229 229 236 246 250 248 242 235 230 237 244 251 258 271 291 310 86 128 148 180 188 190 193 190 146 100 97 147 164 188 209
67 94 135 184 229 104 104 250 225 87 79 321 301 283 283 283 272 262 251 248 214 204 206 217 215 219 213 183 146 223 223 232 255 254 236 252 248 242 238 238 240 247 241 199 182 208 248 259 266 261 256 247 237 241 233 226 229 236 239 237 229 226 230 233 240 251 261 275 281 276 242 181 171 175 188 198 203 193 176 168 172 161 164 205 221
83 177 163 203 272 296 284 318 312 297 94 314 303 282 276 256 252 257 243 243 238 222 201 215 211 211 197 156 227 221 237 246 245 251 253 255 254 254 249 248 247 233 243 259 220 168 190 231 245 253 249 245 238 243 230 222 216 219 224 226 224 218 224 227 232 245 260 270 274 267 247 216 193 187 192 199 202 198 203 213 206 219 190 269 260
200 170 156 199 293 307 302 294 296 300 285 295 288 287 281 279 275 266 263 259 255 236 216 200 214 222 196 147 228 246 240 228 250 250 250 250 252 253 255 251 248 236 225 227 237 222 177 183 224 239 250 260 236 236 222 203 201 200 206 213 220 215 216 219 212 233 259 282 282 257 177 211 214 218 205 206 202 200 205 219 230 245 271 264 249
277 25 126 92 40 242 260 266 279 291 296 286 284 287 285 293 304 288 282 260 246 227 214 230 226 229 216 244 236 249 259 274 255 258 251 256 257 251 251 246 240 235 234 200 196 240 211 183 183 208 200 237 239 229 205 187 188 186 194 202 210 212 200 184 167 155 157 124 141 128 187 226 224 233 221 214 208 202 201 210 216 224 235 233 211
230 83 37 54 235 226 216 229 240 262 300 295 282 275 285 292 291 291 281 262 253 250 243 255 246 257 253 243 260 268 266 256 263 265 266 267 262 255 248 245 243 238 237 225 188 190 243 213 183 175 170 201 225 222 200 169 179 183 191 196 198 199 184 162 159 149 133 146 125 143 177 227 236 222 247 235 226 226 216 199 184 169 167 179 179
288 96 69 330 256 251 235 207 242 261 278 296 304 298 300 300 293 296 288 274 270 263 266 256 230 258 261 226 258 271 273 263 265 266 268 271 268 267 260 253 249 244 243 243 216 169 232 248 186 160 179 178 193 218 194 174 171 182 183 191 189 182 170 160 146 140 138 130 127 105 156 221 236 207 272 267 271 284 266 125 118 122 121 122 136
71 102 110 22 305 300 260 218 216 259 274 296 309 306 301 298 291 292 288 279 271 266 270 270 276 268 269 283 267 260 256 261 263 267 276 278 276 276 270 263 261 257 252 249 232 175 185 267 276 193 180 163 181 201 201 177 166 171 182 193 189 165 153 141 129 117 110 125 134 141 147 212 231 249 277 285 308 353 53 73 95 122 137 140 107
99 116 107 192 256 261 284 262 255 247 271 277 286 288 296 291 281 273 277 283 282 283 271 269 265 263 281 279 263 259 260 263 268 274 276 277 282 273 267 264 261 256 251 248 237 198 180 201 199 176 183 171 169 185 192 186 180 179 187 180 182 160 137 133 128 115 109 147 145 136 146 188 288 282 281 295 124 127 100 88 115 127 142 144 150
17 25 128 162 232 250 255 229 216 258 284 292 282 287 292 283 276 274 274 281 276 269 256 270 279 262 256 264 261 264 264 268 271 276 283 283 285 276 271 265 256 250 249 255 235 206 167 186 223 159 150 152 159 174 184 180 174 173 174 175 151 135 122 115 109 99 140 134 157 168 149 228 249 226 289 65 113 144 146 143 137 160 142 164 167
146 142 200 200 235 245 249 257 256 288 304 299 295 301 298 293 281 285 281 249 261 269 272 282 272 272 271 267 245 253 267 270 275 279 282 284 284 278 275 268 251 247 242 245 229 192 139 163 231 160 144 150 149 166 178 176 168 163 162 161 140 124 126 118 117 142 143 149 125 82 211 234 200 128 199 151 144 140 148 153 161 158 170 172 155
159 198 213 202 250 247 249 256 275 293 290 290 290 303 304 294 288 288 285 269 257 276 281 266 285 289 288 289 287 279 273 278 281 282 286 286 283 277 274 266 252 248 233 231 199 150 138 141 195 165 141 145 148 169 171 171 165 155 150 141 134 124 128 123 117 143 136 139 148 142 193 216 179 153 145 129 134 140 140 142 146 158 163 165 168
218 216 226 287 275 281 275 276 278 278 284 283 303 313 303 288 288 295 304 286 259 277 285 290 293 293 303 307 315 311 285 279 280 286 291 287 285 275 264 250 236 230 227 211 162 130 128 147 183 158 144 137 153 162 170 172 153 149 144 137 133 130 126 125 127 139 139 136 122 130 155 146 149 160 138 126 124 122 126 133 147 157 163 156 129
288 271 208 240 279 290 298 307 304 315 314 328 330 303 301 294 306 300 302 311 333 323 312 315 299 292 291 278 282 291 298 286 286 319 345 338 307 306 267 238 187 174 178 182 126 114 124 161 160 139 133 133 138 148 166 166 149 140 138 139 132 132 125 117 117 124 123 119 114 124 145 141 140 138 130 123 121 118 120 134 146 155 142 121 83
240 238 158 282 291 278 299 308 310 326 324 313 315 310 309 310 326 321 324 335 335 335 327 309 300 292 269 270 284 293 293 301 97 96 86 78 87 122 236 193 154 149 142 122 96 97 138 152 144 131 125 132 140 148 165 151 138 138 134 128 125 116 113 108 131 127 115 117 112 99 132 128 130 128 115 115 111 117 126 138 138 105 115 87 80
277 296 124 236 278 293 296 307 321 334 327 320 316 316 312 316 334 311 320 329 335 337 327 310 308 304 297 300 285 265 265 77 98 95 95 97 111 115 119 143 135 135 116 108 112 128 144 142 130 123 121 121 138 145 149 137 132 132 126 127 123 119 119 122 116 108 107 101 103 122 134 128 125 115 115 109 112 122 139 132 141 142 118 83 67
284 301 192 187 268 305 298 309 330 343 331 325 303 328 318 315 299 296 308 319 317 327 324 313 299 279 268 179 233 189 106 78 91 92 89 99 110 115 98 72 64 73 79 94 98 105 135 129 114 110 110 115 115 128 124 125 124 118 120 115 118 113 113 112 110 121 125 122 117 117 119 116 132 114 112 121 123 125 131 140 141 128 116 80 70
301 325 311 241 117 220 101 297 334 348 336 316 313 333 309 293 294 292 294 310 312 318 318 300 283 283 249 120 96 65 88 78 68 79 88 95 98 94 95 95 84 78 73 77 96 125 118 105 102 103 108 111 117 120 111 113 118 113 113 115 105 105 105 107 114 119 114 105 116 147 131 135 128 118 109 112 109 110 118 123 108 83 78 64 50
1 316 347 332 3 39 9 332 104 184 359 347 102 283 293 294 298 287 298 298 299 303 303 305 309 350 23 50 30 40 68 64 70 71 82 84 85 89 97 101 106 100 92 92 109 128 124 114 108 105 110 118 118 112 112 106 105 108 105 107 97 100 102 105 104 109 101 107 117 136 130 131 115 110 107 104 99 94 92 78 82 74 65 62 60
68 298 9 7 16 140 86 338 334 32 89 145 113 340 283 296 283 274 287 301 310 320 330 331 350 16 25 23 32 66 71 89 74 82 68 74 80 102 102 114 110 108 107 126 135 121 111 103 103 105 108 106 105 103 99 98 97 99 100 93 95 93 100 99 119 121 133 123 135 127 125 112 105 106 105 90 92 92 66 69 75 68 62 61 61
138 359 342 18 20 22 14 284 324 298 11 349 86 333 267 264 253 294 310 305 320 345 20 358 18 17 19 33 62 110 107 112 102 103 73 91 93 94 100 107 113 118 129 131 128 116 103 100 99 101 97 97 94 93 91 88 88 93 94 92 93 96 92 116 114 114 109 108 121 123 88 97 98 95 92 95 91 87 90 77 68 65 68 52 54
38 66 90 30 65 227 203 275 309 292 97 86 72 99 253 274 68 345 360 338 345 11 16 27 29 60 40 82 112 99 109 107 105 96 113 101 104 104 108 112 118 122 126 122 113 106 100 97 96 94 94 91 88 97 92 86 84 84 88 91 98 104 122 112 128 112 114 118 124 111 81 86 88 89 87 85 80 77 79 74 62 69 72 69 54
22 35 52 16 6 294 340 61 311 317 79 104 104 25 20 57 33 42 3 345 33 31 61 50 71 70 84 106 113 119 110 112 108 115 116 118 123 111 110 114 116 120 114 108 101 96 95 92 89 89 89 91 99 100 95 93 95 80 89 98 102 125 119 120 115 114 125 134 130 87 84 79 79 77 81 81 85 85 80 79 65 63 55 48 48
40 54 13 15 17 335 331 4 288 325 4 68 73 52 77 96 93 79 61 70 58 79 76 86 95 96 105 112 109 105 117 122 142 148 118 122 121 116 113 116 114 105 100 97 91 88 85 83 84 86 93 100 102 103 126 125 100 94 95 106 131 121 121 112 111 125 124 136 128 66 76 75 74 77 78 80 82 81 80 84 89 79 69 64 58
161 103 14 3 339 328 309 231 347 354 44 12 59 50 32 66 79 81 101 99 95 87 94 95 105 112 124 122 117 117 126 128 111 110 127 125 123 120 114 112 108 101 86 98 91 88 86 92 94 90 96 94 101 119 128 127 129 139 141 135 122 119 114 124 129 123 133 131 124 67 70 76 75 80 80 79 81 78 81 77 72 67 63 66 68
21 75 303 342 357 335 314 358 41 19 350 44 25 49 41 27 44 61 71 82 84 96 103 109 111 118 103 129 135 130 124 124 125 133 131 137 132 128 123 109 94 98 92 94 99 99 92 100 99 102 106 113 127 134 129 121 121 129 123 111 115 118 121 128 125 127 129 133 111 73 72 74 76 78 79 84 87 87 87 96 90 86 86 84 83
73 42 29 351 333 294 309 352 3 31 89 8 16 53 83 104 95 95 87 94 97 100 110 115 119 106 129 129 121 125 129 129 129 127 136 127 116 113 92 93 104 97 89 109 106 106 110 111 115 112 115 118 125 112 120 123 120 114 114 128 118 122 126 124 125 127 133 131 111 69 75 76 78 80 83 85 86 90 92 91 92 93 99 98 92
354 354 11 63 93 298 333 337 30 30 5 35 61 81 160 115 120 105 105 111 105 116 127 136 133 139 126 131 131 131 132 134 131 140 141 140 116 93 85 94 97 107 110 109 112 117 118 122 122 124 118 122 121 109 106 114 117 127 138 127 135 131 132 127 125 125 123 121 114 87 83 84 84 86 87 88 90 91 93 94 95 97 98 98 95
320 331 84 161 199 202 4 10 74 39 63 72 84 98 87 78 101 121 130 113 129 137 143 134 136 138 138 129 130 135 136 141 147 146 139 142 123 146 106 115 112 117 116 123 127 126 121 121 117 116 118 115 113 119 112 102 109 108 109 116 113 128 133 132 131 136 133 125 121 105 85 90 92 93 92 94 95 96 96 95 96 96 97 97 98
314 324 99 171 161 126 185 134 89 92 90 105 116 117 120 124 136 139 141 128 141 145 127 132 138 132 134 143 144 144 154 156 148 141 130 111 99 99 100 120 126 122 129 135 125 123 122 123 123 120 118 114 123 120 113 118 130 131 118 120 144 141 133 142 146 142 142 139 141 128 96 99 102 100 99 97 99 100 98 98 98 97 97 97 99
311 324 261 154 160 146 168 147 123 110 118 118 121 129 129 136 141 142 137 143 142 129 128 133 135 145 149 147 150 155 159 146 140 127 112 102 105 89 108 119 121 137 132 132 137 136 133 129 126 121 114 117 114 111 114 121 122 110 126 134 124 135 151 149 140 112 141 156 148 144 117 97 104 103 101 100 101 100 100 102 101 100 99 97 96
314 304 173 144 133 177 172 147 132 123 125 122 119 122 129 138 136 140 147 148 126 135 141 147 153 152 152 149 154 158 154 149 135 118 116 109 102 107 118 129 144 135 144 151 141 132 136 133 126 124 122 116 114 110 114 118 121 138 130 136 142 143 142 129 146 166 147 142 131 138 148 121 90 92 90 92 92 95 100 100 101 99 96 94 90
309 309 91 152 184 191 177 146 151 139 124 122 125 125 125 125 135 147 149 133 139 146 147 152 154 152 151 153 154 149 137 124 126 125 115 123 124 117 127 131 137 149 143 151 144 129 127 129 120 115 110 115 119 110 115 131 134 133 139 147 156 166 165 130 113 124 116 119 149 154 122 132 134 80 80 77 72 74 77 89 96 95 92 87 84
289 282 355 247 182 180 161 162 155 139 128 138 132 128 122 131 133 140 134 129 139 144 146 148 148 147 148 149 145 142 138 133 126 132 114 98 119 124 135 138 148 150 149 138 142 144 150 137 146 132 126 112 124 125 127 122 121 132 144 154 167 136 100 119 121 114 150 196 143 108 155 141 72 93 79 59 74 69 59 59 75 83 83 77 76
269 331 298 242 197 188 176 173 154 159 146 149 134 136 128 128 135 129 129 135 140 139 143 142 138 145 143 146 144 143 142 139 139 135 136 128 114 128 123 144 147 141 154 155 131 155 148 146 153 117 135 139 140 141 142 135 140 155 147 153 175 160 155 151 141 106 153 126 114 137 100 104 124 125 118 84 51 57 57 43 43 64 65 65 65
316 279 251 202 205 203 194 198 183 167 175 149 155 144 141 141 141 139 135 135 137 141 145 138 149 149 147 153 152 149 148 148 143 140 122 125 140 124 139 143 137 146 158 153 142 155 161 154 160 124 143 123 132 129 141 145 162 144 109 151 125 70 127 79 93 189 140 162 212 55 92 110 102 50 114 111 108 62 41 39 37 41 53 56 51
293 301 276 223 207 211 191 215 200 196 178 173 162 158 154 156 147 141 154 152 156 156 151 158 158 166 164 161 151 154 157 150 147 140 144 138 139 134 113 120 137 156 146 143 153 158 159 169 157 159 164 149 149 147 142 140 119 118 141 161 156 154 89 171 190 17 159 20 54 31 19 47 60 22 57 41 63 100 20 39 40 46 58 54 45
277 285 255 234 236 207 196 211 209 202 190 183 169 162 165 159 146 157 148 149 152 155 160 161 183 170 159 160 156 157 156 158 154 147 140 117 151 149 145 133 136 148 145 157 166 167 169 171 177 163 152 134 114 125 145 137 133 160 162 170 10 308 313 51 122 27 352 36 39 353 40 33 20 27 93 104 55 338 290 344 21 36 45 45 35
285 294 260 215 234 198 210 214 204 207 201 193 170 172 175 152 162 158 153 161 153 175 163 167 176 183 157 169 154 155 167 165 167 159 154 137 132 141 121 128 134 141 148 148 175 181 173 175 181 179 154 165 154 160 166 142 162 139 21 189 178 186 285 7 49 69 20 34 355 49 19 37 40 12 40 30 69 346 12 25 7 18 22 3 22
283 274 284 260 234 224 227 206 194 208 203 196 172 178 169 160 167 166 159 159 169 174 169 172 177 201 161 175 162 174 176 176 174 169 162 142 143 130 137 112 125 140 153 161 174 184 171 180 191 183 156 167 144 146 150 138 160 173 187 28 357 354 4 357 132 145 30 33 29 13 39 35 21 357 356 16 16 40 330 353 352 17 49 335 347
275 277 295 280 265 238 239 224 197 201 186 182 175 180 175 169 172 166 165 169 172 175 170 178 171 193 182 188 177 181 182 184 180 170 169 159 151 150 130 133 126 141 144 159 172 176 171 161 181 164 168 174 172 156 170 163 175 188 114 312 42 12 341 67 322 48 101 63 29 22 23 336 5 1 358 56 47 79 325 335 332 355 32 12 15
292 297 308 282 266 269 261 225 202 184 177 174 178 179 175 173 172 170 168 177 181 165 182 170 178 200 191 186 170 199 187 184 188 172 168 168 153 149 143 138 128 134 142 142 156 160 160 165 173 181 159 201 163 174 189 203 157 107 210 111 42 359 241 36 355 20 40 49 63 22 22 319 345 61 29 34 340 345 0 3 347 13 27 30 23
303 310 290 277 277 250 241 222 209 191 189 176 167 173 173 179 164 182 166 179 172 173 182 179 189 197 190 178 195 195 182 190 192 182 181 174 179 169 136 170 148 132 123 112 138 154 151 171 168 190 181 189 198 164 180 193 38 77 294 216 65 202 20 186 88 73 35 15 51 54 22 nan 348 34 19 42 346 359 19 28 2 4 35 25 22
286 292 288 287 263 242 249 233 228 204 203 202 163 174 177 180 170 165 177 165 178 185 193 185 181 205 200 194 196 194 163 206 184 188 205 199 178 165 177 196 172 170 148 147 122 144 176 152 189 187 184 199 185 200 151 185 151 286 154 11 302 314 57 20 27 45 72 159 178 256 89 76 333 12 352 32 337 0 0 42 342 14 11 8 10
276 285 300 276 240 279 267 257 245 227 214 234 170 190 188 177 161 170 178 177 173 178 180 171 178 180 191 184 216 198 173 194 210 210 235 194 196 186 186 189 179 145 85 111 112 67 113 176 181 191 178 179 226 200 169 133 168 161 57 298 1 338 33 13 40 57 95 298 36 26 342 148 304 28 49 8 338 5 353 22 351 357 359 3 4
264 263 295 287 278 282 283 271 251 238 247 266 218 186 183 150 147 145 140 152 151 148 146 154 158 159 155 172 222 221 195 212 215 200 217 226 197 202 182 165 202 163 140 145 153 146 84 306 114 225 142 203 170 131 180 127 137 26 40 13 21 17 19 101 83 28 39 145 24 357 26 357 55 342 207 78 319 272 128 329 43 354 322 344 337
273 272 222 276 286 282 290 291 266 240 253 259 252 160 177 130 126 125 142 145 136 140 137 138 158 137 207 146 191 199 194 212 229 205 218 212 209 199 193 155 175 163 143 133 93 106 135 143 182 184 183 197 132 104 112 126 93 122 79 38 46 73 72 64 37 46 37 50 80 99 34 27 38 352 19 24 307 331 25 37 235 339 336 0 353
269 280 241 258 276 284 294 303 263 238 235 253 231 175 167 155 145 138 154 133 137 150 139 137 143 141 172 136 155 178 167 156 209 220 201 206 193 185 177 153 149 160 141 140 130 138 195 180 147 183 174 155 114 116 126 137 116 45 166 120 122 80 55 53 80 87 76 62 47 58 94 159 86 355 61 267 5 6 329 348 344 21 348 343 5
263 261 252 249 262 283 284 301 282 252 225 255 221 184 178 171 161 152 161 149 147 139 132 135 148 135 141 153 140 152 136 129 148 168 122 165 169 149 138 139 121 154 102 143 120 205 164 181 147 149 119 96 124 158 124 121 112 146 55 108 130 107 105 105 75 34 52 77 110 88 84 123 102 63 276 29 10 17 345 359 320 333 352 329 48
248 251 259 259 258 269 285 315 296 255 237 251 202 197 186 183 170 152 164 151 149 148 135 137 147 137 127 128 125 135 105 101 94 111 102 103 102 154 108 111 144 116 198 171 156 182 136 87 109 135 168 148 138 117 118 120 115 134 119 115 113 106 94 107 109 113 149 145 110 124 95 66 46 285 244 172 129 99 0 25 313 331 333 10 45
243 253 250 261 258 260 275 313 288 241 261 252 226 208 185 188 177 158 158 149 148 166 152 153 138 135 123 108 106 108 112 104 84 77 86 82 87 92 126 119 118 172 150 141 113 109 217 112 98 179 102 108 121 131 113 90 91 105 98 74 85 103 162 123 215 163 103 115 118 119 110 100 150 152 356 32 36 317 105 351 300 17 23 322 38